Flag for Estonia Weather past 2 weeks in Narva, Estonia

Now
65 °F

Overcast.


Feels Like: 65 °F
Forecast: 54 / 69 °F
Wind: 6 mph from Northwest

Location: Narva

Current Time: Jul 1, 2015 at 4:15:18 PM

Latest Report: Jul 1, 2015 at 3:00 PM


Visibility: 13 mi

Pressure: 30.11 "Hg

Humidity: 73%

Dew point: 56 °F

Location of NarvaLocation

Historic Weather in Narva — Graph

°F

Narva temperature yesterday

Maximum temperature yesterday: 72 °F (at 3:00 PM)
Minimum temperature yesterday: 46 °F (at 4:00 AM)
Average temperature yesterday: 60 °F

Past Weeks' High & Low Weather Summary

 TemperatureHumidityPressure
High73 °F (Jun 23, 4:00 PM)100% (Jun 22, 4:00 AM)30.11 "Hg (Jun 22, 4:00 AM)
Low43 °F (Jun 17, 4:00 AM)39% (Jun 17, 7:00 PM)29.74 "Hg (Jun 24, 8:00 AM)
Average58 °F76%29.90 "Hg
* Reported Jun 16 3:00 PM — Jul 1 3:00 PM, Narva, Weather by CustomWeather, © 2015

Note: Actual official high and low records may vary slightly from our data, if they occured in-between our weather recording intervals... More about our weather records

Advertising

Narva weather history for previous 24 hours

 ConditionsComfort  
Time TempWeatherWind HumidityBarometerVisibility
3:00 PM
Wed, Jul 1
65 °FOvercast.6 mph73%30.11 "Hg12 mi
2:00 PM64 °FOvercast.6 mph76%30.10 "Hg12 mi
1:00 PM63 °FPartly sunny.5 mph78%30.09 "Hg12 mi
12:00 PM62 °FLow clouds.5 mph83%30.08 "Hg12 mi
11:00 AM61 °FLow clouds.5 mph86%30.07 "Hg12 mi
10:00 AM61 °FLow clouds.3 mph87%30.05 "Hg12 mi
9:00 AM59 °FLow clouds.3 mph93%30.04 "Hg12 mi
8:00 AM59 °FLow clouds.5 mph93%30.03 "Hg12 mi
7:00 AM60 °FLow clouds.5 mph94%30.02 "Hg12 mi
5:00 AM58 °FLow clouds.2 mph96%30.00 "Hg9 mi
4:00 AM58 °FOvercast.2 mph97%30.00 "Hg11 mi
3:00 AM58 °FOvercast.2 mph97%30.00 "Hg12 mi
2:00 AM58 °FOvercast.2 mph94%29.99 "Hg12 mi
1:00 AM59 °FPassing clouds.3 mph94%29.99 "Hg12 mi
12:00 AM59 °FOvercast.2 mph94%29.99 "Hg12 mi
11:00 PM
Tue, Jun 30
58 °FRain showers. Overcast.1 mph96%29.99 "Hg6 mi
10:00 PM59 °FFog.1 mph98%29.98 "Hg6 mi
9:00 PM62 °FPartly sunny.1 mph93%29.98 "Hg12 mi
7:00 PM64 °FOvercast.2 mph88%29.99 "Hg12 mi
5:00 PM68 °FOvercast.2 mph59%29.98 "Hg12 mi
4:00 PM72 °FPartly sunny.2 mph49%29.98 "Hg12 mi
Weather by CustomWeather, © 2015

See weather overviewHow to use our weather pages